Temperature
19 18 18 18 18 18 18 17 17 17 17 16 16 16 16 15 15 15 15 15 15 15 15 15 15 14 14 14 14 14 14 14 14 14 14 14 14 14 14 14 14 14 14
19 18 18 18 18 18 18 17 17 17 17 17 16 16 16 15 15 15 15 15 15 15 15 15 14 14 14 14 14 14 14 14 14 14 15 15 15 14 14 14 14 14 13
19 19 18 18 17 17 17 17 17 17 17 17 16 16 16 15 15 15 15 15 15 15 15 15 14 14 14 14 14 14 14 14 14 14 14 15 16 14 14 14 13 13 13
19 18 18 17 17 17 17 17 17 17 17 16 16 16 16 15 15 15 15 15 15 15 15 14 14 14 14 14 14 14 14 14 14 14 14 14 14 14 14 14 13 13 13
19 18 18 17 17 17 17 17 17 17 17 17 16 16 15 15 15 15 15 15 15 15 15 14 14 14 14 14 14 14 14 14 13 13 13 13 13 14 14 14 14 13 13
18 18 17 17 17 17 17 17 17 17 17 16 16 16 15 15 15 15 15 15 15 15 14 14 14 14 14 14 14 14 13 13 13 13 13 13 13 14 14 14 14 13 13
18 18 17 17 17 17 17 17 17 17 16 16 16 16 15 15 15 15 15 14 14 14 14 14 14 14 14 14 13 13 13 13 13 13 13 13 13 13 13 14 13 13 13
18 18 17 17 17 17 17 17 17 17 16 16 16 16 15 15 15 15 14 14 14 14 14 14 14 14 13 13 13 13 13 13 13 13 13 13 13 13 13 13 13 13 13
18 17 17 17 17 17 17 17 17 16 16 16 16 15 15 15 15 14 14 14 14 14 14 14 14 13 13 13 13 13 13 13 13 12 12 12 12 12 12 12 12 13 13
18 17 17 17 16 16 16 16 16 16 16 16 16 15 15 15 15 14 14 14 14 14 14 14 14 13 13 13 13 13 13 12 13 13 12 12 12 12 12 12 12 12 12
17 17 16 16 16 16 16 16 16 16 16 16 15 15 15 15 14 14 14 14 14 14 14 14 13 13 13 13 13 13 12 12 12 12 12 12 12 12 12 12 12 12 12
17 16 16 16 16 16 16 15 15 15 16 15 15 15 15 14 14 14 14 14 14 13 13 13 13 13 13 13 13 13 12 12 12 12 12 12 12 12 12 12 12 12 12
16 16 16 16 16 15 15 15 15 15 15 15 15 14 14 14 14 14 13 14 13 13 13 13 13 13 12 12 12 12 12 12 12 12 12 12 11 11 11 11 11 11 11
16 16 15 15 15 15 15 15 15 15 15 14 14 14 14 14 14 13 13 13 13 13 13 13 13 12 12 12 12 12 12 12 12 11 11 11 11 11 11 11 11 11 11
16 16 15 15 15 15 15 15 14 14 14 14 14 14 14 13 13 13 13 13 13 13 13 12 12 12 12 12 12 12 11 11 11 11 11 11 11 11 11 11 11 11 11
16 15 15 15 15 15 14 14 14 14 14 14 14 13 13 13 13 13 13 13 13 12 12 12 12 12 12 12 12 12 11 11 11 11 11 11 11 11 11 11 11 11 10
16 15 15 15 14 14 14 14 14 14 14 14 13 13 13 12 12 12 12 12 12 12 12 12 12 12 12 12 12 12 11 11 11 11 10 10 11 11 10 11 11 11 10
15 15 15 14 14 14 14 14 14 14 13 13 13 13 12 12 12 12 12 12 12 12 12 12 12 12 12 12 12 12 11 11 10 10 10 10 10 10 10 10 10 10 10
15 15 15 14 14 14 14 13 13 13 13 13 13 13 12 12 12 12 12 11 11 11 11 11 11 11 11 11 11 11 11 10 10 10 10 10 10 10 10 10 10 10 10
14 14 14 14 14 14 13 13 13 13 13 13 12 12 12 12 12 12 11 11 11 11 11 11 11 11 11 11 11 11 10 10 10 10 10 10 10 10 10 10 9 9 9
14 14 14 14 14 13 13 13 13 12 12 12 12 12 12 12 12 11 11 11 11 10 10 10 10 10 11 11 11 11 10 10 10 10 9 9 10 10 10 9 9 9 9
13 13 13 13 13 13 13 12 12 12 12 12 11 11 11 11 11 11 11 11 10 10 10 10 10 10 10 10 10 10 10 10 9 9 9 9 10 9 9 9 9 9 9
12 12 13 12 12 12 12 12 12 12 11 11 11 11 11 11 10 10 10 10 10 10 9 9 9 9 9 9 10 9 9 9 9 9 9 9 9 9 9 8 9 9 8
12 12 12 12 12 12 12 11 11 11 11 11 10 10 10 10 10 10 10 10 9 9 9 9 9 8 8 9 9 9 9 9 9 8 8 9 8 8 8 8 8 8 8
11 11 11 11 11 11 11 11 11 10 10 10 10 10 10 9 9 9 9 9 9 9 9 9 8 8 8 8 8 8 8 8 8 8 8 7 7 7 7 7 7 7 7
10 10 10 10 10 10 10 10 10 10 10 9 9 9 9 9 9 8 8 9 9 9 8 8 8 8 8 8 8 8 8 8 8 7 7 7 7 7 7 7 7 7 6
Wind_Speed
7 6 6 6 6 6 6 5 6 5 5 4 3 3 3 2 2 2 2 2 2 2 2 1 1 1 1 1 1 1 1 1 1 1 2 2 2 2 2 2 2 3 3
8 7 7 7 7 7 6 6 6 6 5 3 3 2 2 2 2 2 2 2 2 2 1 2 2 2 1 2 2 1 1 1 1 1 1 1 2 2 2 2 1 2 2
9 9 8 8 7 7 7 6 6 6 5 4 3 3 2 2 2 2 2 2 2 2 2 2 2 2 2 2 2 2 2 2 1 1 2 1 1 1 2 1 1 1 1
10 9 9 9 8 8 7 7 6 6 5 5 4 5 4 3 3 2 2 3 3 3 2 2 3 3 2 2 3 3 2 2 2 1 2 2 1 1 1 2 2 1 1
10 10 9 9 8 7 7 6 6 6 5 5 5 5 4 3 2 2 3 3 3 3 3 3 3 3 3 3 3 3 3 3 2 2 1 1 1 3 2 1 1 1 1
10 10 9 8 7 7 6 6 6 6 5 5 6 6 5 4 4 4 3 3 3 3 4 4 4 3 3 3 4 4 4 3 3 3 2 2 2 2 2 2 2 1 0
10 10 10 9 8 7 7 7 7 7 6 7 6 6 6 5 5 4 4 4 3 3 4 4 4 4 4 4 4 4 4 4 4 4 3 3 3 2 2 2 2 2 1
9 10 9 9 8 8 7 7 8 7 7 7 6 6 5 4 4 5 4 5 4 4 5 5 5 5 4 4 4 4 5 4 5 5 4 3 3 2 2 2 2 2 2
8 9 9 8 8 8 8 8 8 8 7 7 7 6 6 5 5 6 5 5 5 4 5 5 5 5 5 5 5 4 5 5 5 5 5 4 3 3 3 3 3 3 3
7 8 8 8 7 7 7 7 8 8 7 7 7 6 6 6 6 6 6 6 5 5 5 5 5 5 5 5 5 5 5 5 5 4 5 4 4 3 3 4 4 4 4
7 7 7 7 6 6 6 6 7 7 7 7 7 6 6 6 6 6 6 6 6 5 6 6 6 6 6 6 5 6 5 6 6 6 6 6 4 4 4 4 4 4 4
6 6 6 6 5 6 6 6 6 7 7 7 7 6 6 6 7 7 7 6 6 6 6 6 6 6 6 6 6 6 6 6 6 6 6 6 4 5 5 4 5 4 5
5 5 5 5 5 5 5 5 6 6 6 6 6 7 6 6 7 6 6 6 6 6 6 6 6 6 6 6 6 6 6 6 6 6 6 6 6 6 5 5 4 4 4
5 5 5 5 5 5 5 5 5 5 6 6 7 7 7 7 6 6 5 6 6 6 6 6 6 6 6 6 6 6 6 6 6 6 6 7 7 7 6 5 5 4 5
5 6 6 5 5 5 4 4 4 5 6 6 7 7 7 6 6 5 5 5 5 6 6 6 6 6 5 5 6 6 6 6 6 6 6 6 5 4 4 4 5 5 5
5 5 5 5 5 5 4 4 4 5 5 6 7 6 6 6 6 5 5 5 5 5 5 6 6 5 5 3 3 5 6 6 6 6 6 5 6 5 5 5 5 5 6
5 5 5 6 5 5 5 5 5 5 5 6 6 6 6 6 6 5 5 5 5 5 5 6 6 6 5 5 5 5 6 6 6 6 5 4 4 5 6 6 7 7 6
5 5 5 5 5 5 5 4 4 4 5 6 6 6 7 7 6 5 5 6 5 5 5 5 6 5 5 6 6 6 7 7 6 6 5 5 5 5 5 6 6 6 6
5 5 4 4 4 4 4 4 4 4 5 5 6 6 7 7 7 6 6 6 5 5 5 5 5 5 5 5 5 5 5 6 6 5 5 5 5 3 3 6 6 5 4
3 3 3 3 4 4 4 4 4 4 5 5 5 6 6 7 7 7 7 6 5 5 5 5 5 5 4 4 5 5 4 5 5 4 4 3 3 2 4 6 5 6 5
2 2 2 3 3 3 4 4 4 4 4 4 4 5 5 6 6 6 6 6 5 5 5 4 4 4 3 4 4 3 3 4 4 3 3 3 3 3 4 5 5 4 5
1 1 2 1 2 3 4 4 4 4 3 3 4 4 4 4 4 5 5 5 5 5 5 5 4 3 3 2 3 3 2 2 3 3 3 2 3 3 4 4 2 2 4
1 1 1 1 2 2 3 3 3 3 3 3 3 3 3 3 3 4 5 5 5 5 5 4 4 3 2 2 3 3 3 2 3 2 0 0 2 3 3 3 3 3 3
1 1 2 2 2 2 3 3 3 3 3 3 3 3 3 3 3 3 4 5 5 5 5 5 4 3 3 2 2 2 3 3 3 2 2 3 4 3 2 3 3 3 2
2 2 2 2 2 2 2 2 2 2 3 3 3 3 3 3 3 4 4 5 5 4 5 5 5 5 4 3 2 2 2 2 2 2 2 2 2 3 3 3 3 3 3
2 2 2 2 2 2 2 2 2 3 3 3 3 2 2 2 3 3 2 1 2 2 2 2 2 3 2 3 4 4 3 2 3 3 3 3 3 3 3 3 3 3 3
Wind_Direction
195 186 186 186 184 183 181 173 176 173 171 172 180 172 166 157 147 148 143 141 156 159 146 168 151 151 155 148 140 129 132 133 118 145 123 121 102 92 97 79 76 80 71
196 187 189 190 192 187 186 182 180 176 176 182 187 185 175 176 152 161 163 168 182 194 194 205 198 190 186 191 180 193 229 178 231 281 257 180 152 133 110 114 92 82 83
202 193 191 191 194 194 192 189 184 180 177 177 175 173 175 189 184 184 181 191 199 205 223 225 220 214 217 206 209 212 221 231 244 281 300 295 344 121 154 124 124 103 104
204 198 193 194 195 197 195 193 185 183 180 177 187 195 203 211 215 205 198 200 204 207 214 222 225 218 222 214 215 218 224 233 240 226 284 306 329 285 208 174 150 131 148
202 200 198 196 195 193 192 191 185 185 186 193 200 215 223 223 215 204 201 206 203 211 216 223 226 225 222 224 222 223 229 226 244 241 238 242 248 267 278 268 224 189 170
200 202 199 193 193 190 187 188 191 190 190 200 208 215 220 220 213 215 216 219 214 218 218 220 221 224 227 227 226 223 223 238 240 248 247 248 253 259 255 263 257 265 276
196 196 194 193 193 190 188 190 193 195 194 202 209 214 221 222 221 224 223 226 227 224 220 215 222 223 229 228 222 222 226 229 233 241 249 253 267 266 264 260 272 278 269
195 194 194 194 196 195 194 195 197 199 196 203 210 214 217 224 228 230 230 230 234 234 227 219 222 221 224 225 221 230 226 233 233 235 233 239 248 246 250 261 269 271 264
194 194 195 197 197 198 200 201 202 203 202 205 211 216 218 221 228 232 231 232 237 237 230 219 219 218 220 223 221 229 226 231 238 239 232 231 236 234 237 242 251 267 272
197 195 196 199 200 201 203 204 206 207 207 209 213 215 221 225 229 231 230 231 233 230 227 222 221 220 219 219 219 231 236 233 232 239 242 238 237 233 230 234 246 254 265
196 194 195 199 201 201 202 205 210 209 210 212 216 217 221 226 227 228 231 234 233 228 226 223 222 223 224 221 216 227 227 233 232 226 230 233 235 227 226 234 242 244 246
191 193 194 194 196 200 204 208 214 213 213 216 219 223 222 225 228 229 231 232 231 227 226 223 225 225 226 226 224 226 226 230 231 229 229 229 222 229 229 230 237 239 240
192 192 194 196 199 202 205 208 215 220 216 217 222 225 225 228 230 230 232 231 229 226 225 227 227 226 224 224 228 229 231 230 231 230 230 229 225 227 227 229 236 242 241
201 200 205 208 205 205 209 214 217 223 220 219 223 227 228 229 230 229 229 227 227 226 226 227 227 226 223 224 229 231 230 230 232 230 232 233 232 233 232 229 231 234 236
212 207 209 210 209 208 212 216 221 222 220 220 224 228 229 228 228 225 225 225 225 228 227 227 226 223 220 226 229 229 229 228 228 228 231 235 241 259 247 241 235 230 231
223 214 212 210 213 216 217 217 221 223 223 224 226 225 224 223 225 221 221 221 223 227 225 225 222 221 220 208 219 237 228 228 226 227 226 223 220 224 227 243 248 248 241
234 225 219 217 217 219 222 223 224 222 223 226 225 220 217 217 222 220 216 218 221 222 220 220 219 222 218 192 199 221 231 233 231 226 222 223 222 220 228 216 216 229 243
248 239 230 224 221 219 223 227 223 222 225 224 223 221 218 218 218 216 217 221 221 218 219 219 220 222 217 193 202 215 227 230 230 226 226 225 225 224 235 229 226 231 230
258 247 239 229 221 218 219 220 221 225 232 232 227 223 221 219 218 214 216 219 219 219 222 220 218 220 215 189 199 216 224 230 230 228 228 226 228 203 222 232 231 233 234
263 247 228 214 211 213 209 214 221 227 237 240 240 234 226 223 219 218 216 213 213 217 217 219 219 219 218 172 182 213 222 226 226 225 222 213 242 203 210 227 232 236 240
258 229 207 199 205 204 205 218 230 241 246 245 244 239 231 227 222 219 211 205 206 210 213 212 215 215 213 183 172 200 225 223 225 223 223 212 181 198 213 240 241 251 260
245 211 194 191 195 202 207 222 241 253 254 246 242 238 232 230 222 212 206 204 202 203 205 204 206 213 211 199 178 183 229 266 229 231 231 212 155 180 202 229 253 248 251
256 230 190 184 198 209 216 229 252 256 248 238 236 239 231 225 223 211 201 201 204 207 209 206 203 204 209 191 168 182 200 243 244 240 265 142 162 196 208 207 217 225 242
280 246 218 221 234 234 239 241 248 245 235 232 229 230 224 219 215 212 207 206 209 211 210 209 206 203 199 206 201 202 200 198 219 228 185 178 187 210 224 217 216 228 241
283 260 245 247 256 252 253 261 251 238 234 231 230 230 224 219 213 211 212 212 215 217 214 212 209 202 204 197 182 198 206 216 218 221 210 207 203 212 221 225 230 234 232
294 287 279 269 267 260 262 276 265 242 234 236 235 236 227 218 212 208 204 157 204 172 196 214 222 214 195 164 171 181 181 178 181 195 215 216 216 222 228 232 234 237 241
Height
1531 1533 1534 1535 1537 1538 1539 1541 1542 1543 1543 1544 1545 1546 1546 1547 1547 1547 1548 1548 1549 1549 1549 1549 1550 1549 1549 1549 1549 1548 1548 1548 1548 1548 1548 1548 1548 1547 1547 1547 1547 1546 1546
1529 1530 1532 1533 1535 1536 1538 1539 1540 1542 1543 1543 1544 1545 1546 1546 1547 1547 1547 1548 1548 1548 1549 1549 1549 1549 1548 1548 1548 1548 1548 1548 1547 1548 1548 1548 1549 1547 1547 1546 1546 1547 1546
1526 1528 1530 1531 1533 1534 1536 1537 1539 1540 1541 1542 1543 1544 1544 1545 1546 1546 1546 1546 1547 1547 1548 1548 1548 1548 1548 1548 1547 1547 1547 1547 1547 1547 1548 1548 1547 1547 1547 1546 1546 1546 1545
1524 1526 1527 1529 1531 1532 1534 1536 1537 1539 1540 1541 1541 1542 1543 1544 1544 1545 1545 1545 1545 1546 1546 1546 1546 1547 1547 1546 1546 1546 1546 1546 1546 1546 1546 1547 1547 1547 1547 1547 1546 1545 1545
1521 1523 1525 1527 1529 1530 1532 1534 1535 1537 1538 1539 1540 1541 1541 1542 1542 1542 1543 1543 1544 1544 1544 1544 1545 1545 1545 1545 1545 1545 1545 1545 1545 1545 1545 1545 1545 1545 1546 1545 1545 1545 1544
1518 1520 1522 1524 1526 1528 1529 1531 1533 1535 1536 1537 1538 1539 1539 1540 1540 1540 1541 1541 1542 1542 1542 1542 1542 1543 1543 1543 1543 1543 1543 1544 1544 1544 1544 1544 1544 1544 1544 1544 1544 1544 1544
1515 1517 1520 1522 1523 1525 1527 1529 1530 1532 1533 1534 1535 1536 1537 1538 1538 1538 1539 1539 1539 1539 1540 1540 1540 1540 1540 1541 1541 1541 1541 1542 1542 1542 1542 1542 1542 1543 1543 1543 1542 1542 1542
1512 1515 1517 1519 1521 1523 1524 1526 1528 1529 1530 1531 1533 1533 1534 1535 1535 1536 1536 1537 1537 1537 1537 1537 1538 1538 1538 1538 1538 1539 1539 1540 1540 1540 1540 1540 1540 1541 1541 1541 1541 1541 1541
1510 1512 1514 1516 1518 1520 1521 1523 1525 1526 1527 1528 1530 1531 1532 1532 1532 1533 1533 1534 1534 1534 1535 1535 1535 1535 1535 1536 1536 1536 1537 1537 1538 1538 1538 1538 1538 1538 1539 1539 1539 1540 1539
1508 1510 1512 1514 1515 1517 1518 1520 1522 1523 1524 1525 1527 1527 1528 1529 1529 1530 1530 1530 1531 1531 1532 1532 1533 1533 1533 1533 1533 1534 1534 1535 1535 1535 1536 1536 1536 1536 1536 1537 1537 1538 1538
1506 1508 1509 1511 1513 1514 1516 1517 1518 1520 1521 1522 1523 1524 1524 1525 1525 1526 1526 1527 1527 1528 1528 1529 1529 1530 1530 1530 1530 1531 1531 1532 1532 1532 1533 1533 1533 1533 1534 1534 1535 1535 1535
1504 1505 1507 1509 1510 1511 1513 1514 1515 1516 1517 1518 1519 1520 1521 1521 1522 1522 1523 1523 1524 1524 1524 1525 1525 1526 1526 1527 1527 1528 1528 1528 1529 1529 1530 1530 1530 1531 1531 1531 1532 1532 1532
1502 1503 1505 1506 1507 1508 1510 1510 1512 1512 1513 1514 1515 1516 1517 1517 1518 1518 1519 1519 1520 1520 1521 1521 1522 1522 1523 1523 1524 1524 1525 1525 1525 1526 1526 1527 1527 1528 1528 1528 1529 1529 1529
1500 1501 1502 1504 1505 1506 1507 1508 1508 1509 1510 1511 1511 1512 1513 1513 1514 1514 1515 1515 1516 1517 1517 1517 1518 1518 1519 1520 1520 1521 1521 1522 1522 1522 1523 1523 1524 1525 1525 1525 1526 1526 1526
1498 1499 1500 1501 1502 1503 1504 1504 1505 1506 1506 1507 1508 1508 1509 1509 1510 1510 1511 1511 1512 1513 1513 1514 1514 1515 1515 1516 1516 1517 1518 1518 1519 1519 1519 1519 1520 1521 1522 1522 1523 1523 1523
1496 1496 1497 1498 1498 1500 1500 1501 1502 1502 1503 1503 1504 1504 1505 1505 1506 1506 1507 1507 1508 1508 1509 1510 1510 1511 1511 1512 1512 1513 1514 1514 1515 1515 1515 1516 1516 1517 1517 1518 1519 1519 1520
1493 1493 1494 1495 1495 1496 1497 1498 1498 1499 1499 1500 1500 1501 1501 1501 1502 1502 1502 1503 1503 1504 1505 1505 1506 1507 1507 1508 1508 1509 1510 1511 1511 1512 1512 1512 1513 1513 1514 1514 1514 1515 1515
1490 1491 1491 1492 1493 1493 1494 1495 1495 1496 1496 1496 1497 1497 1497 1498 1498 1498 1499 1499 1500 1500 1501 1502 1502 1503 1503 1504 1504 1505 1506 1507 1507 1508 1509 1509 1509 1510 1510 1511 1511 1512 1512
1487 1488 1488 1489 1489 1490 1491 1491 1492 1493 1493 1493 1493 1493 1494 1494 1494 1494 1495 1496 1496 1497 1497 1498 1499 1499 1500 1500 1500 1501 1502 1503 1503 1504 1505 1505 1506 1506 1506 1507 1508 1508 1508
1484 1484 1485 1485 1486 1487 1488 1488 1489 1489 1489 1489 1489 1490 1490 1490 1490 1491 1492 1492 1493 1493 1494 1494 1495 1495 1496 1496 1496 1497 1498 1498 1499 1500 1501 1501 1501 1502 1502 1503 1504 1504 1504
1481 1481 1482 1482 1483 1484 1484 1485 1486 1486 1486 1486 1486 1486 1486 1487 1487 1487 1488 1489 1489 1490 1490 1491 1491 1491 1492 1492 1493 1493 1494 1494 1495 1496 1497 1497 1497 1498 1499 1500 1500 1500 1501
1479 1479 1479 1479 1480 1481 1481 1482 1482 1483 1482 1482 1482 1482 1482 1483 1483 1483 1484 1485 1485 1486 1487 1487 1487 1488 1488 1488 1489 1489 1490 1491 1492 1492 1493 1493 1493 1494 1495 1495 1496 1496 1497
1477 1477 1477 1477 1478 1478 1479 1479 1479 1479 1479 1479 1479 1479 1479 1479 1479 1480 1480 1481 1481 1482 1483 1483 1483 1484 1484 1485 1485 1486 1486 1487 1488 1489 1489 1489 1490 1490 1491 1491 1492 1492 1493
1475 1475 1475 1475 1475 1476 1476 1476 1476 1476 1476 1476 1475 1476 1476 1476 1476 1476 1477 1477 1478 1478 1478 1479 1480 1480 1481 1481 1482 1482 1483 1484 1485 1485 1486 1486 1486 1487 1487 1487 1488 1488 1489
1473 1473 1472 1473 1473 1473 1473 1473 1473 1473 1473 1473 1473 1472 1473 1472 1472 1472 1473 1473 1474 1474 1475 1475 1476 1477 1477 1478 1478 1479 1479 1480 1481 1481 1482 1483 1483 1483 1483 1484 1484 1484 1485
1471 1470 1470 1470 1470 1470 1470 1470 1470 1470 1470 1470 1470 1470 1469 1469 1469 1469 1469 1469 1470 1470 1471 1472 1473 1473 1474 1475 1475 1476 1476 1477 1478 1478 1479 1479 1479 1479 1480 1480 1480 1481 1481